Location: Knowlton
(51.2333°N, 1.2667°E)
Time: 12:42:15
(UTC+00:00)

ISS - Pass Details

Date: 30 September 2021
Orbit: 417 x 423 km, 51.6° (Epoch: 21 October)

Event Time Altitude Azimuth Distance (km) Brightness Sun altitude
Rises 19:01:13 0° 284° (WNW) 2,367 2.1 -14.3°
Reaches altitude 10° 19:03:20 10° 280° (W) 1,502 0.5 -14.6°
Maximum altitude 19:06:38 54° 202° (SSW) 515 -3.3 -15.1°
Enters shadow 19:08:00 30° 138° (SE) 779 -2.9 -15.3°
